timestamp,wind_dir_avg,wind_spd_avg,wind_spd_max_dir,wind_spd_gust,battery_voltage,lat,long
2023-07-09 00:04:00+00:00,64.0,1.14,45.0,1.45,12.89,47.59359,-54.27349
2023-07-09 00:14:00+00:00,315.0,0.01,111.0,0.0,12.49,47.59359,-54.27349
2023-07-09 00:24:00+00:00,152.0,2.06,157.0,2.42,12.49,47.59359,-54.27349
2023-07-09 00:34:00+00:00,188.0,1.57,189.0,1.63,12.49,47.59359,-54.27349
2023-07-09 00:44:00+00:00,315.0,0.01,206.0,0.0,12.49,47.59359,-54.27349
2023-07-09 00:54:00+00:00,315.0,0.01,186.0,0.0,12.49,47.59359,-54.27349
2023-07-09 01:04:00+00:00,124.0,1.38,117.0,1.96,12.49,47.59359,-54.27349
2023-07-09 01:14:01+00:00,195.0,4.24,195.0,4.43,12.41,47.59359,-54.27349
2023-07-09 01:24:01+00:00,195.0,3.63,198.0,3.73,12.41,47.59359,-54.27349
2023-07-09 01:34:01+00:00,315.0,0.01,196.0,0.0,12.41,47.59359,-54.27349
2023-07-09 01:44:01+00:00,199.0,2.9,198.0,3.41,12.41,47.59359,-54.27349
2023-07-09 01:54:01+00:00,290.0,2.05,286.0,2.35,12.41,47.59359,-54.27349
2023-07-09 02:04:01+00:00,251.0,1.45,249.0,1.89,12.41,47.59359,-54.27349
2023-07-09 02:14:01+00:00,175.0,1.82,174.0,1.98,12.41,47.59359,-54.27349
2023-07-09 02:24:01+00:00,166.0,2.8,166.0,2.96,12.41,47.59359,-54.27349
2023-07-09 02:34:01+00:00,184.0,3.21,187.0,3.39,12.41,47.59359,-54.27349
2023-07-09 02:44:01+00:00,204.0,2.59,198.0,4.04,12.41,47.59359,-54.27349
2023-07-09 02:54:01+00:00,194.0,3.07,196.0,3.34,12.41,47.59359,-54.27349
2023-07-09 03:04:01+00:00,206.0,3.45,213.0,3.85,12.41,47.59359,-54.27349
2023-07-09 03:14:01+00:00,196.0,3.49,199.0,3.78,12.41,47.59359,-54.27349
2023-07-09 03:24:01+00:00,200.0,3.18,202.0,3.33,12.41,47.59359,-54.27349
2023-07-09 03:34:01+00:00,185.0,3.55,184.0,3.81,12.41,47.59359,-54.27349
2023-07-09 03:44:01+00:00,195.0,3.7,196.0,4.11,12.41,47.59359,-54.27349
2023-07-09 03:54:01+00:00,214.0,3.81,216.0,4.24,12.41,47.59359,-54.27349
2023-07-09 04:04:01+00:00,218.0,3.91,219.0,4.29,12.41,47.59359,-54.27349
2023-07-09 04:14:00+00:00,193.0,3.75,194.0,4.31,12.41,47.59359,-54.27349
2023-07-09 04:24:00+00:00,208.0,3.19,213.0,3.44,12.41,47.59359,-54.27349
2023-07-09 04:34:00+00:00,214.0,2.26,212.0,2.59,12.41,47.59359,-54.27349
2023-07-09 04:44:00+00:00,214.0,1.71,212.0,1.99,12.41,47.59359,-54.27349
2023-07-09 04:54:00+00:00,212.0,2.01,214.0,2.23,12.41,47.59359,-54.27349
2023-07-09 05:04:00+00:00,197.0,2.67,199.0,3.0,12.41,47.59359,-54.27349
2023-07-09 05:14:00+00:00,196.0,2.66,192.0,2.9,12.33,47.59359,-54.27349
2023-07-09 05:24:00+00:00,188.0,1.77,185.0,2.2,12.33,47.59359,-54.27349
2023-07-09 05:34:00+00:00,256.0,1.14,252.0,1.37,12.33,47.59359,-54.27349
2023-07-09 05:44:00+00:00,205.0,2.73,210.0,3.34,12.33,47.59359,-54.27349
2023-07-09 05:54:00+00:00,202.0,3.26,203.0,3.5,12.33,47.59359,-54.27349
2023-07-09 06:04:00+00:00,190.0,3.2,192.0,3.54,12.33,47.59359,-54.27349
2023-07-09 06:14:00+00:00,192.0,3.28,193.0,3.42,12.33,47.59359,-54.27349
2023-07-09 06:24:00+00:00,206.0,2.36,215.0,2.67,12.33,47.59359,-54.27349
2023-07-09 06:34:00+00:00,211.0,2.65,211.0,2.85,12.33,47.59359,-54.27349
2023-07-09 06:44:00+00:00,214.0,3.57,217.0,3.8,12.33,47.59359,-54.27349
2023-07-09 06:54:00+00:00,202.0,2.95,205.0,3.24,12.33,47.59359,-54.27349
2023-07-09 07:04:00+00:00,189.0,3.09,190.0,3.28,12.33,47.59359,-54.27349
2023-07-09 07:14:01+00:00,181.0,2.14,185.0,2.35,12.33,47.59359,-54.27349
2023-07-09 07:24:01+00:00,197.0,2.35,198.0,2.61,12.33,47.59359,-54.27349
2023-07-09 07:34:01+00:00,205.0,3.62,206.0,3.79,12.33,47.59359,-54.27349
2023-07-09 07:44:01+00:00,198.0,2.94,197.0,3.15,12.33,47.59359,-54.27349
2023-07-09 07:54:01+00:00,315.0,0.01,198.0,0.0,12.33,47.59359,-54.27349
2023-07-09 08:04:01+00:00,315.0,0.01,198.0,0.0,12.33,47.59359,-54.27349
2023-07-09 08:14:00+00:00,205.0,3.4,207.0,3.62,12.25,47.59359,-54.27349
2023-07-09 08:24:00+00:00,315.0,0.01,203.0,0.0,12.25,47.59359,-54.27349
2023-07-09 08:34:00+00:00,214.0,4.39,214.0,4.72,12.25,47.59359,-54.27349
2023-07-09 08:44:00+00:00,207.0,3.18,210.0,3.62,12.25,47.59359,-54.27349
2023-07-09 08:54:00+00:00,213.0,3.7,216.0,3.97,12.25,47.59359,-54.27349
2023-07-09 09:04:00+00:00,191.0,1.66,192.0,1.93,12.25,47.59359,-54.27349
2023-07-09 09:14:01+00:00,208.0,2.8,206.0,3.2,12.17,47.59359,-54.27349
2023-07-09 09:24:01+00:00,212.0,2.97,212.0,3.01,12.17,47.59359,-54.27349
2023-07-09 09:34:01+00:00,315.0,0.01,199.0,0.0,12.17,47.59359,-54.27349
2023-07-09 09:44:01+00:00,223.0,2.9,223.0,3.17,12.17,47.59359,-54.27349
2023-07-09 09:54:01+00:00,228.0,1.92,229.0,2.05,12.17,47.59359,-54.27349
2023-07-09 10:04:01+00:00,184.0,1.15,185.0,1.38,12.17,47.59359,-54.27349
2023-07-09 10:14:00+00:00,166.0,0.73,181.0,0.9,12.57,47.59359,-54.27349
2023-07-09 10:24:00+00:00,169.0,1.8,171.0,1.91,12.57,47.59359,-54.27349
2023-07-09 10:34:00+00:00,175.0,2.28,177.0,2.36,12.57,47.59359,-54.27349
2023-07-09 10:44:00+00:00,174.0,2.69,175.0,2.77,12.57,47.59359,-54.27349
2023-07-09 10:54:00+00:00,167.0,3.05,170.0,3.24,12.57,47.59359,-54.27349
2023-07-09 11:04:00+00:00,188.0,3.07,187.0,3.39,12.57,47.59359,-54.27349
2023-07-09 11:14:00+00:00,186.0,2.43,188.0,2.58,13.21,47.59359,-54.27349
2023-07-09 11:24:00+00:00,183.0,1.2,187.0,1.35,13.21,47.59359,-54.27349
2023-07-09 11:34:00+00:00,212.0,0.97,210.0,1.09,13.21,47.59359,-54.27349
2023-07-09 11:44:00+00:00,245.0,2.39,244.0,2.76,13.21,47.59359,-54.27349
2023-07-09 11:54:00+00:00,220.0,2.31,220.0,2.48,13.21,47.59359,-54.27349
2023-07-09 12:04:00+00:00,248.0,0.89,245.0,1.01,13.21,47.59359,-54.27349
2023-07-09 12:14:00+00:00,183.0,0.46,196.0,0.55,13.53,47.59359,-54.27349
2023-07-09 12:24:00+00:00,133.0,0.84,135.0,1.16,13.53,47.59359,-54.27349
2023-07-09 12:34:00+00:00,122.0,1.17,120.0,1.49,13.53,47.59359,-54.27349
2023-07-09 12:44:00+00:00,121.0,1.04,122.0,1.27,13.53,47.59359,-54.27349
2023-07-09 12:54:00+00:00,63.0,1.35,67.0,1.57,13.53,47.59359,-54.27349
2023-07-09 13:04:00+00:00,38.0,2.09,42.0,2.38,13.53,47.59359,-54.27349
2023-07-09 13:14:01+00:00,60.0,1.0,55.0,1.16,13.68,47.59359,-54.27349
2023-07-09 13:24:01+00:00,50.0,1.51,49.0,1.7,13.68,47.59359,-54.27349
2023-07-09 13:34:01+00:00,61.0,0.29,67.0,0.54,13.68,47.59359,-54.27349
2023-07-09 13:44:01+00:00,228.0,0.53,227.0,0.64,13.68,47.59359,-54.27349
2023-07-09 13:54:01+00:00,325.0,0.64,337.0,0.85,13.68,47.59359,-54.27349
2023-07-09 14:04:01+00:00,310.0,0.27,321.0,0.53,13.68,47.59359,-54.27349
2023-07-09 14:14:00+00:00,247.0,1.46,252.0,1.62,13.68,47.59359,-54.27349
2023-07-09 14:24:00+00:00,332.0,1.1,342.0,1.31,13.68,47.59359,-54.27349
2023-07-09 14:34:00+00:00,16.0,2.08,13.0,2.42,13.68,47.59359,-54.27349
2023-07-09 14:44:00+00:00,35.0,1.48,36.0,1.85,13.68,47.59359,-54.27349
2023-07-09 14:54:00+00:00,37.0,2.25,38.0,2.48,13.68,47.59359,-54.27349
2023-07-09 15:04:00+00:00,32.0,2.77,34.0,3.01,13.68,47.59359,-54.27349
2023-07-09 15:14:00+00:00,31.0,2.44,32.0,2.66,13.6,47.59359,-54.27349
2023-07-09 15:24:00+00:00,20.0,1.35,21.0,1.56,13.6,47.59359,-54.27349
2023-07-09 15:34:00+00:00,6.0,1.18,6.0,1.41,13.6,47.59359,-54.27349
2023-07-09 15:44:00+00:00,31.0,1.89,33.0,2.11,13.6,47.59359,-54.27349
2023-07-09 15:54:00+00:00,12.0,0.63,6.0,0.78,13.6,47.59359,-54.27349
2023-07-09 16:04:00+00:00,310.0,0.38,314.0,0.53,13.6,47.59359,-54.27349
2023-07-09 16:14:01+00:00,281.0,0.77,285.0,0.89,14.32,47.59359,-54.27349
2023-07-09 16:24:01+00:00,291.0,0.47,290.0,0.52,14.32,47.59359,-54.27349
2023-07-09 16:34:01+00:00,256.0,0.94,257.0,1.04,14.32,47.59359,-54.27349
2023-07-09 16:44:01+00:00,268.0,1.61,268.0,1.72,14.32,47.59359,-54.27349
2023-07-09 16:54:01+00:00,238.0,1.24,237.0,1.48,14.32,47.59359,-54.27349
2023-07-09 17:04:01+00:00,252.0,1.65,249.0,1.76,14.32,47.59359,-54.27349
2023-07-09 18:14:00+00:00,249.0,1.91,249.0,2.02,13.68,47.59359,-54.27349
2023-07-09 18:24:00+00:00,250.0,2.16,248.0,2.35,13.68,47.59359,-54.27349
2023-07-09 18:34:00+00:00,246.0,1.53,245.0,1.69,13.68,47.59359,-54.27349
2023-07-09 18:44:00+00:00,219.0,1.05,220.0,1.45,13.68,47.59359,-54.27349
2023-07-09 18:54:00+00:00,199.0,1.16,197.0,1.27,13.68,47.59359,-54.27349
2023-07-09 19:04:00+00:00,202.0,0.95,204.0,1.04,13.68,47.59359,-54.27349
2023-07-09 19:14:00+00:00,206.0,1.45,194.0,1.88,13.68,47.59359,-54.27349
2023-07-09 19:24:00+00:00,239.0,0.05,222.0,0.86,13.68,47.59359,-54.27349
2023-07-09 19:34:00+00:00,237.0,0.37,228.0,0.43,13.68,47.59359,-54.27349
2023-07-09 19:44:00+00:00,253.0,1.44,258.0,1.54,13.68,47.59359,-54.27349
2023-07-09 19:54:00+00:00,247.0,1.39,244.0,1.76,13.68,47.59359,-54.27349
2023-07-09 20:04:00+00:00,227.0,1.29,226.0,1.5,13.68,47.59359,-54.27349
2023-07-09 20:14:00+00:00,213.0,2.01,212.0,2.24,13.6,47.59359,-54.27349
2023-07-09 20:24:00+00:00,208.0,3.1,208.0,3.29,13.6,47.59359,-54.27349
2023-07-09 20:34:00+00:00,209.0,2.13,211.0,2.28,13.6,47.59359,-54.27349
2023-07-09 20:44:00+00:00,218.0,1.75,215.0,1.91,13.6,47.59359,-54.27349
2023-07-09 20:54:00+00:00,216.0,1.28,215.0,1.42,13.6,47.59359,-54.27349
2023-07-09 21:04:00+00:00,208.0,2.01,210.0,2.09,13.6,47.59359,-54.27349
2023-07-09 21:14:01+00:00,220.0,1.17,218.0,1.39,13.37,47.59359,-54.27349
2023-07-09 21:24:01+00:00,290.0,0.95,294.0,1.1,13.37,47.59359,-54.27349
2023-07-09 21:34:01+00:00,246.0,1.17,241.0,1.36,13.37,47.59359,-54.27349
2023-07-09 21:44:01+00:00,8.0,0.33,14.0,0.57,13.37,47.59359,-54.27349
2023-07-09 21:54:01+00:00,229.0,0.09,269.0,0.3,13.37,47.59359,-54.27349
2023-07-09 22:04:01+00:00,31.0,1.28,41.0,1.58,13.37,47.59359,-54.27349
2023-07-09 22:14:01+00:00,76.0,2.71,78.0,4.03,12.97,47.59359,-54.27349
2023-07-09 22:24:01+00:00,82.0,2.27,83.0,3.89,12.97,47.59359,-54.27349
2023-07-09 22:34:01+00:00,82.0,3.64,92.0,5.85,12.97,47.59359,-54.27349
2023-07-09 22:44:01+00:00,79.0,4.04,73.0,5.96,12.97,47.59359,-54.27349
2023-07-09 22:54:01+00:00,86.0,3.62,102.0,4.51,12.97,47.59359,-54.27349
2023-07-09 23:04:01+00:00,66.0,3.39,64.0,3.98,12.97,47.59359,-54.27349
2023-07-09 23:14:00+00:00,97.0,1.75,55.0,2.97,12.49,47.59359,-54.27349
2023-07-09 23:24:00+00:00,72.0,4.94,67.0,6.35,12.49,47.59359,-54.27349
2023-07-09 23:34:00+00:00,76.0,2.95,69.0,4.18,12.49,47.59359,-54.27349
2023-07-09 23:44:00+00:00,92.0,1.64,110.0,3.66,12.49,47.59359,-54.27349
2023-07-09 23:54:00+00:00,66.0,2.71,71.0,3.54,12.49,47.59359,-54.27349
